Regional Weather Roundup
Issued by NWS State College, PA

Home | Current Version | Previous Version | Graphics & Text | Print | Product List | Glossary On
Versions: 1 2 3 4 5 6 7 8 9 10 11 12 13 14 15 16 17 18 19 20 21 22 23 24 25 26 27 28 29 30 31 32 33 34 35 36 37 38 39 40 41 42 43 44 45 46 47 48 49 50
000
ASUS41 KCTP 241303
RWRCTP

REGIONAL WEATHER ROUNDUP
NATIONAL WEATHER SERVICE STATE COLLEGE PA
900 AM EDT THU JUL 24 2014

Note: "fair" indicates few or no clouds below 12,000 feet with no
significant weather and/or obstructions to visibility.

* = STATION THAT DOES NOT REPORT PRECIPITATION /E.G. RAIN...SNOW...ETC/
    THUNDER OR FOG.

PAZ002>004-007>009-013>016-020>023-029>032-241400-
WESTERN PENNSYLVANIA

CITY           SKY/WX    TMP DP  RH WIND       PRES   REMARKS
ERIE           PTSUNNY   66  55  68 NE12G20   30.05R
MEADVILLE      MOSUNNY   65  57  75 NE8       30.06R
FRANKLIN*      MOSUNNY   63  55  77 N3        30.06S
NEW CASTLE       N/A     65  58  78 NE7       30.05S
BEAVER COUNTY  MOSUNNY   64  59  82 N6        30.04R
BUTLER*        MOSUNNY   64  55  72 N8        30.05S
PITTSBURGH INT CLOUDY    66  57  72 N12       30.02S
PITTSBURGH     MOSUNNY   65  55  70 N8        30.01R
INDIANA*       MOSUNNY   64  57  77 E7        30.05S
LATROBE        MOSUNNY   64  61  88 NE9       30.02R
WASHINGTON CO* MOSUNNY   64  57  77 NE8       30.03R
$$

PAZ004>006-010>012-017>019-024>028-033>037-041-042-045-046-049>053-241400-
CENTRAL PENNSYLVANIA

CITY           SKY/WX    TMP DP  RH WIND       PRES   REMARKS
BRADFORD       PTSUNNY   61  54  77 NW7       30.04S
DUBOIS         PTSUNNY   64  57  78 NE9       30.03R
CLEARFIELD     MOSUNNY   63  56  78 N10       30.02R
JOHNSTOWN      MOSUNNY   60  54  80 N6        30.02R
ALTOONA        MOSUNNY   67  58  72 N10       30.00R
STATE COLLEGE  MOSUNNY   66  57  72 NE5       29.99S
WILLIAMSPORT   PTSUNNY   69  55  60 NW6       29.95S
SELINSGROVE    PTSUNNY   69  58  67 N8        29.95S
FT INDIANTOWN  PTSUNNY   71  60  70 NE6       29.93S
CAPITAL CITY   CLOUDY    69  58  67 N8        29.93S
HARRISBURG     CLOUDY    71  59  65 N12       29.92S
YORK           CLOUDY    69  60  73 N8        29.93R
$$

PAZ038>040-043-044-047-048-054-055-060>062-067>071-241400-
EASTERN PENNSYLVANIA

CITY           SKY/WX    TMP DP  RH WIND       PRES   REMARKS
SCRANTON       PTSUNNY   68  56  65 N8        29.94F
MOUNT POCONO   MOSUNNY   64  55  72 N8G18     29.95S
ALLENTOWN      PTSUNNY   71  59  65 N9        29.90S
QUAKERTOWN*    PTSUNNY   72  61  68 NW8G17    29.91R
READING        CLOUDY    70  60  70 N12       29.91R
LANCASTER      CLOUDY    69  61  75 N9        29.92R
COATESVILLE    PTSUNNY   68  63  83 N7        29.92R
POTTSTOWN      PTSUNNY   72  61  68 N8        29.91R
BLUE BELL      PTSUNNY   72  63  73 N5        29.88S
DOYLESTOWN     PTSUNNY   70  62  76 N10       29.88S
WILLOW GROVE   NOT AVBL
NORTH PHILA    PTSUNNY   74  62  66 N12       29.89R
PHILADELPHIA   CLOUDY    73  59  61 N13       29.88R
$$



USA.gov is the U.S. government's official web portal to all federal, state and local government web resources and services.